Jackson, MI

7:34 PM EDT on October 14, 2019 (GMT -0400)
Jackson County-Reynolds

Weather History for KJXN - August, 2019

Change the Weather History Date:

Thursday, August 15, 2019

  Actual Average Record
Temperature  
Mean Temperature 71 °F 70 °F  
Max Temperature 82 °F 80 °F 97 °F (1965)
Min Temperature 60 °F 59 °F 42 °F (1964)
Degree Days  
Heating Degree Days 0 1  
Month to date heating degree days 0 11  
Since 1 June heating degree days 58 77  
Since 1 July heating degree days 0 22  
Cooling Degree Days 6 6  
Month to date cooling degree days 85 90  
Year to date cooling degree days 490 455  
Since 1 June cooling degree days 480 418  
Growing Degree Days 22 (Base 50)    
Moisture  
Dew Point 60 °F    
Average Humidity 76    
Maximum Humidity 93    
Minimum Humidity 58    
Precipitation  
Precipitation 0.00 in 0.11 in 1.89 in (2016)
Month to date precipitation 0.22 1.72  
Year to date precipitation 20.41 19.17  
Sea Level Pressure  
Sea Level Pressure 29.96 in    
Wind  
Wind Speed 6 mph (North)    
Max Wind Speed 14 mph    
Max Gust Speed 22 mph    
Visibility 10 miles    
Events      
T = Trace of Precipitation, MM = Missing Value Source: NWS Daily Summary

Daily Weather History Graph

Daily Weather History Graph

Search for Another Location

Airport or City:

Astronomy

Aug. 15, 2019 Rise Set
Actual Time 6:44 AM EDT 8:38 PM EDT
Civil Twilight 6:14 AM EDT 9:09 PM EDT
Nautical Twilight 5:37 AM EDT 9:45 PM EDT
Astronomical Twilight 4:57 AM EDT 10:25 PM EDT
Moon 9:07 PM EDT (8/15) 6:37 AM EDT (8/15)
Length of Visible Light 14h 54m
Length of Day
13h 54m
Full, 100% of the Moon is Illuminated
Aug 15
Full
Aug 23
Last Quarter
Aug 30
New
Sep 5
First Quarter
Sep 14
Full

Hourly Weather History & Observations

Time (EDT) Temp. Heat Index Dew Point Humidity Pressure Visibility Wind Dir Wind Speed Gust Speed Precip Events Conditions
12:56 AM 66.0 °F - 55.0 °F 68% 29.97 in 10.0 mi NE 5.8 mph - N/A   Partly Cloudy
1:56 AM 66.0 °F - 55.0 °F 68% 29.97 in 10.0 mi NE 4.6 mph - N/A   Partly Cloudy
2:56 AM 64.9 °F - 55.0 °F 70% 29.97 in 10.0 mi NNE 4.6 mph - N/A   Mostly Cloudy
3:56 AM 64.0 °F - 55.9 °F 75% 29.96 in 10.0 mi NE 5.8 mph - N/A   Mostly Cloudy
4:56 AM 62.1 °F - 55.9 °F 80% 29.95 in 10.0 mi NE 4.6 mph - N/A   Partly Cloudy
5:56 AM 63.0 °F - 57.9 °F 84% 29.95 in 10.0 mi NNE 3.5 mph - N/A   Overcast
6:49 AM 64.0 °F - 57.0 °F 78% 29.97 in 10.0 mi North 4.6 mph - N/A   Overcast
6:56 AM 64.0 °F - 57.0 °F 78% 29.96 in 10.0 mi North 4.6 mph - N/A   Overcast
7:37 AM 64.0 °F - 57.9 °F 80% 29.98 in 10.0 mi North 4.6 mph - N/A   Overcast
7:56 AM 64.0 °F - 59.0 °F 84% 29.96 in 10.0 mi NNE 4.6 mph - N/A   Overcast
8:48 AM 64.9 °F - 59.0 °F 81% 29.98 in 10.0 mi North 4.6 mph - N/A   Mostly Cloudy
8:56 AM 64.9 °F - 59.0 °F 81% 29.97 in 10.0 mi North 3.5 mph - N/A   Overcast
9:27 AM 66.0 °F - 60.1 °F 81% 29.98 in 10.0 mi NNE 6.9 mph - N/A   Mostly Cloudy
9:56 AM 69.1 °F - 61.0 °F 75% 29.96 in 10.0 mi NNE 6.9 mph - N/A   Scattered Clouds
10:56 AM 71.1 °F - 62.1 °F 73% 29.97 in 10.0 mi Calm Calm - N/A   Clear
11:56 AM 75.9 °F - 63.0 °F 64% 29.97 in 10.0 mi NE 4.6 mph - N/A   Partly Cloudy
12:56 PM 77.0 °F - 63.0 °F 62% 29.95 in 10.0 mi NE 5.8 mph - N/A   Mostly Cloudy
1:40 PM 75.9 °F - 64.0 °F 67% 29.95 in 10.0 mi Variable 3.5 mph - N/A   Overcast
1:56 PM 79.0 °F - 64.9 °F 62% 29.93 in 10.0 mi Variable 4.6 mph - N/A   Overcast
2:08 PM 78.1 °F - 64.0 °F 62% 29.95 in 10.0 mi NW 6.9 mph - N/A   Mostly Cloudy
2:56 PM 81.0 °F 82.5 °F 64.0 °F 56% 29.92 in 10.0 mi NNW 6.9 mph - N/A   Scattered Clouds
3:56 PM 75.9 °F - 64.0 °F 67% 29.93 in 10.0 mi NW 9.2 mph - N/A   Overcast
4:56 PM 75.0 °F - 64.0 °F 69% 29.94 in 10.0 mi NNW 10.4 mph - N/A   Mostly Cloudy
5:23 PM 73.9 °F - 63.0 °F 68% 29.96 in 10.0 mi NNW 13.8 mph 21.9 mph N/A   Overcast
5:56 PM 73.0 °F - 63.0 °F 71% 29.96 in 10.0 mi NW 8.1 mph - N/A   Overcast
6:56 PM 70.0 °F - 62.1 °F 76% 29.97 in 10.0 mi NNW 9.2 mph - N/A   Overcast
7:56 PM 69.1 °F - 62.1 °F 78% 29.97 in 10.0 mi NNW 6.9 mph - N/A   Overcast
8:56 PM 66.9 °F - 61.0 °F 81% 29.97 in 10.0 mi North 6.9 mph - N/A   Overcast
9:56 PM 66.0 °F - 60.1 °F 81% 29.98 in 10.0 mi North 6.9 mph - N/A   Overcast
10:23 PM 64.0 °F - 60.1 °F 87% 30.00 in 10.0 mi North 3.5 mph - N/A   Scattered Clouds
10:56 PM 64.0 °F - 60.1 °F 87% 29.98 in 10.0 mi Variable 4.6 mph - N/A   Clear
11:56 PM 62.1 °F - 60.1 °F 93% 29.98 in 10.0 mi NW 3.5 mph - N/A   Clear